STARLINK-1471, 45735

Orbit data source: Space-Track

STARLINK-1471, 45735 is a payload satellite owned by SpaceX/Seattle (US) in LEO that was launched on Sat, 13 Jun 2020 UTC via an FALCON 9 launch vehicle from the Air Force Eastern Test Range (AFETR). Payload-class satellites include a variety of spacecraft equipped with specific instruments for various scientific and technological missions. These include communications satellites like Starlink; space stations such as the ISS; scientific satellites like the Hubble; Earth observation satellites from companies like Planet Labs, Umbra, and HawkEye 360; GPS; miniature CubeSats for education and research; and military/defense satellites.

Loading next visibility...
Identifier
45735, 2020-038F
Orbit
LEO
Country
Flag of USUS
Related business
Manufacturer
SpaceX/Seattle
Mission
Partially operational Commercial Communications
Bus & Motor
STARLINK, Unknown motor
Mass
260 kg wet, ~248 kg dry
Launch date (UTC)
2020-06-13 (6 years ago)
Launch vehicle
FALCON 9
Launch site
Air Force Eastern Test Range (AFETR)
Object type
Payload
Rocket body
Debris
Shape & HBR
Box + 1 Pan, 10.1 m
Radar Cross Section
13.562 m², Large (>1 m²)

Expand to show TLE details & history
Last TLE update: 13 hours ago

TLE from 13 hours ago
0 STARLINK-1471
1 45735U 20038F   25348.30130643  .00020634  00000-0  46594-3 0  9995
2 45735  53.0496 189.1787 0001647 100.0110 260.1081 15.43194716304326
Epoch: 2025-12-14T07:13Z
TLE epoch observation values (Epoch: 2025-12-14T07:13:52.875Z)
Latitude
-0.00001°
Longitude
-2.50781°
Altitude
437.774 km
Speed
7.65 km/s
True Right ascension
12h 36m 42s
True Declination
0° 00' 00"
Sunlit
Object was in daylight at epoch
Visualization orbit readout
Latitude
Unknown
Longitude
Unknown
Altitude
Unknown
Speed
Unknown
Apparent Right ascension
Unknown
Apparent Declination
Unknown
Sunlit
N/A
Visualization observer readout
Local Sidereal Time
18:41:34
Azimuth
Unknown
Elevation
Unknown
Doppler factor
Unknown
Orbital elements
Apogee altitude
438.086 km
Perigee altitude
435.841 km
Semi-major axis
6,815.1 km
Eccentricity
0.00016
Inclination
53.0496°
RAAN
189.1787°
Arg. of periapsis
100.011°
True anomaly
260.08951°
Mean anomaly
260.1081°
Eccentric anomaly
260.0988°
Mean motion
3.85776 °/min
Orbital period
93.32 mins
BSTAR
0.00046594
Loading maneuver chart data...
Computing Atmospheric mass density...

Documentation

Showing up to 5 results
|